Weather History for TJSJ - March, 2013

Change the Weather History Date:

Thursday, March 21, 2013

  Actual Average Record
Temperature  
Mean Temperature 83 °F 79 °F  
Max Temperature 92 °F 85 °F 94 °F (1983)
Min Temperature 74 °F 73 °F 65 °F (1963)
Degree Days  
Heating Degree Days 0 0  
Month to date heating degree days 0 0  
Since 1 July heating degree days 0 0  
Cooling Degree Days 18 14  
Month to date cooling degree days 295 288  
Year to date cooling degree days 1091 1039  
Growing Degree Days 32 (Base 50)    
Moisture  
Dew Point 68 °F    
Average Humidity 64    
Maximum Humidity 85    
Minimum Humidity 35    
Precipitation  
Precipitation 0.00 in 0.06 in 1.96 in (1902)
Month to date precipitation 1.20 1.25  
Year to date precipitation 5.30 7.40  
Sea Level Pressure  
Sea Level Pressure 29.91 in    
Wind  
Wind Speed 5 mph (SE)    
Max Wind Speed 14 mph    
Max Gust Speed 22 mph    
Visibility 10 miles    
Events      
T = Trace of Precipitation, MM = Missing Value Source: NWS Daily Summary

Daily Weather History Graph

Daily Weather History Graph

Search for Another Location

Airport or City:

Trip Planner

Search our weather history database for the weather conditions in past years. The results will help you decide how hot, cold, wet, or windy it might be!

Date:

Astronomy

Mar. 21, 2013 Rise Set
Actual Time 6:27 AM AST 6:35 PM AST
Civil Twilight 6:05 AM AST 6:57 PM AST
Nautical Twilight 5:40 AM AST 7:22 PM AST
Astronomical Twilight 5:14 AM AST 7:47 PM AST
Moon 1:40 PM AST (3/21) 2:05 AM AST (3/21)
Length of Visible Light 12h 51m
Length of Day
12h 08m
Waxing Gibbous, 68% of the Moon is Illuminated
Mar 21
Waxing Gibbous
Mar 27
Full
Apr 3
Last Quarter
Apr 10
New
Apr 18
First Quarter

Hourly Weather History & Observations

Time (AST) Temp. Heat Index Dew Point Humidity Pressure Visibility Wind Dir Wind Speed Gust Speed Precip Events Conditions
12:56 AM 75.0 °F - 70.0 °F 84% 29.91 in 10.0 mi East 3.5 mph - N/A   Partly Cloudy
1:56 AM 73.9 °F - 69.1 °F 85% 29.89 in 10.0 mi ENE 3.5 mph - N/A   Partly Cloudy
2:56 AM 75.9 °F - 69.1 °F 79% 29.87 in 10.0 mi Calm Calm - N/A   Scattered Clouds
3:56 AM 75.0 °F - 69.1 °F 82% 29.87 in 10.0 mi Calm Calm - N/A   Scattered Clouds
4:56 AM 75.9 °F - 69.1 °F 79% 29.88 in 10.0 mi Calm Calm - N/A   Mostly Cloudy
5:56 AM 73.9 °F - 68.0 °F 82% 29.90 in 10.0 mi East 3.5 mph - N/A   Mostly Cloudy
6:56 AM 75.0 °F - 69.1 °F 82% 29.92 in 10.0 mi Calm Calm - N/A   Mostly Cloudy
7:56 AM 79.0 °F - 68.0 °F 69% 29.94 in 10.0 mi East 3.5 mph - N/A   Mostly Cloudy
8:56 AM 82.0 °F 84.5 °F 66.9 °F 60% 29.97 in 10.0 mi SE 8.1 mph - N/A   Mostly Cloudy
9:56 AM 84.0 °F 86.5 °F 66.9 °F 56% 29.98 in 10.0 mi SSE 6.9 mph - N/A   Mostly Cloudy
10:56 AM 87.1 °F 90.6 °F 68.0 °F 53% 29.97 in 10.0 mi Variable 5.8 mph - N/A   Mostly Cloudy
11:56 AM 89.1 °F 92.1 °F 66.9 °F 48% 29.94 in 10.0 mi Variable 5.8 mph - N/A   Scattered Clouds
12:56 PM 90.0 °F 92.8 °F 66.9 °F 46% 29.91 in 10.0 mi SE 10.4 mph 16.1 mph N/A   Scattered Clouds
1:56 PM 91.0 °F 94.3 °F 66.9 °F 45% 29.88 in 10.0 mi SE 10.4 mph - N/A   Scattered Clouds
2:56 PM 91.0 °F 95.2 °F 68.0 °F 47% 29.86 in 10.0 mi South 10.4 mph 17.3 mph N/A   Scattered Clouds
3:56 PM 89.1 °F 92.1 °F 66.9 °F 48% 29.85 in 10.0 mi SSE 13.8 mph 19.6 mph N/A   Scattered Clouds
4:56 PM 86.0 °F 88.8 °F 66.9 °F 53% 29.86 in 10.0 mi SSE 11.5 mph 21.9 mph N/A   Scattered Clouds
5:56 PM 84.9 °F 88.2 °F 68.0 °F 57% 29.88 in 10.0 mi SSE 10.4 mph - N/A   Scattered Clouds
6:56 PM 82.9 °F 86.5 °F 69.1 °F 63% 29.91 in 10.0 mi South 6.9 mph - N/A   Partly Cloudy
7:56 PM 82.0 °F 85.5 °F 69.1 °F 65% 29.93 in 10.0 mi South 5.8 mph - N/A   Partly Cloudy
8:56 PM 81.0 °F 84.1 °F 69.1 °F 67% 29.95 in 10.0 mi SSE 4.6 mph - N/A   Partly Cloudy
9:56 PM 80.1 °F 82.9 °F 69.1 °F 69% 29.96 in 10.0 mi SSE 4.6 mph - N/A   Partly Cloudy
10:56 PM 79.0 °F - 69.1 °F 72% 29.95 in 10.0 mi South 4.6 mph - N/A   Partly Cloudy
11:56 PM 79.0 °F - 68.0 °F 69% 29.96 in 10.0 mi Calm Calm - N/A   Partly Cloudy